,,,PA_Meas_PMT16A,,PR_Meas_QMR101_102,,RH_Meas_QMH101,,SR_Meas_QMS101,,TA_Meas_QMH101,,GenWind,,GenWind,
date,time,status,PA,status,PR,status,RH,status,SR,status,TA,status,DirAvg,status,SpdAvg,
2011-10-11, 00:00:05,VALID,1011.028,VALID,0.0,VALID,104.0,VALID,0.0,VALID,22.994,VALID,60.0,VALID,0.0,
2011-10-11, 00:01:05,VALID,1011.041,VALID,0.0,VALID,104.0,VALID,0.0,VALID,22.994,VALID,60.0,VALID,0.0,
2011-10-11, 00:02:05,VALID,1011.033,VALID,0.0,VALID,104.0,VALID,0.0,VALID,22.973,VALID,60.0,VALID,0.0,
2011-10-11, 00:03:05,VALID,1011.045,VALID,0.0,VALID,104.0,VALID,0.0,VALID,22.973,VALID,60.0,VALID,0.0,
2011-10-11, 00:04:05,VALID,1011.061,VALID,0.0,VALID,104.0,VALID,0.0,VALID,22.973,VALID,60.0,VALID,0.0,
2011-10-11, 00:05:05,VALID,1011.059,VALID,0.0,VALID,104.0,VALID,0.0,VALID,22.955,VALID,60.0,VALID,0.0,
2011-10-11, 00:06:05,VALID,1011.08,VALID,0.0,VALID,104.0,VALID,0.0,VALID,22.932,VALID,59.0,VALID,0.0,
2011-10-11, 00:07:05,VALID,1011.111,VALID,0.0,VALID,104.0,VALID,0.0,VALID,22.954,VALID,60.0,VALID,0.0,
2011-10-11, 00:08:05,VALID,1011.093,VALID,0.0,VALID,104.0,VALID,0.0,VALID,22.954,VALID,60.0,VALID,0.0,
2011-10-11, 00:09:05,VALID,1011.103,VALID,0.0,VALID,104.0,VALID,0.0,VALID,22.954,VALID,60.0,VALID,0.0,
2011-10-11, 00:10:05,VALID,1011.125,VALID,0.0,VALID,104.0,VALID,0.0,VALID,22.913,VALID,60.0,VALID,0.0,
2011-10-11, 00:11:05,VALID,1011.136,VALID,0.0,VALID,104.0,VALID,0.0,VALID,22.913,VALID,60.0,VALID,0.0,
2011-10-11, 00:12:05,VALID,1011.142,VALID,0.0,VALID,104.0,VALID,0.0,VALID,22.934,VALID,60.0,VALID,0.287,
2011-10-11, 00:13:05,VALID,1011.144,VALID,0.0,VALID,104.0,VALID,0.0,VALID,22.934,VALID,60.0,VALID,0.428,
2011-10-11, 00:14:05,VALID,1011.145,VALID,0.0,VALID,104.0,VALID,0.0,VALID,22.934,VALID,60.0,VALID,0.472,
2011-10-11, 00:15:05,VALID,1011.165,VALID,0.0,VALID,104.0,VALID,0.112,VALID,22.913,VALID,60.0,VALID,0.598,
2011-10-11, 00:16:05,VALID,1011.212,VALID,0.0,VALID,104.0,VALID,0.0,VALID,22.973,VALID,60.0,VALID,0.736,
2011-10-11, 00:17:05,VALID,1011.185,VALID,0.0,VALID,104.0,VALID,0.0,VALID,23.012,VALID,60.0,VALID,0.46,
2011-10-11, 00:18:05,VALID,1011.156,VALID,0.0,VALID,104.0,VALID,0.0,VALID,23.03,VALID,77.0,VALID,0.876,
2011-10-11, 00:19:05,VALID,1011.163,VALID,0.0,VALID,104.0,VALID,0.0,VALID,23.051,VALID,81.0,VALID,0.533,
2011-10-11, 00:20:05,VALID,1011.158,VALID,0.0,VALID,104.0,VALID,0.0,VALID,23.071,VALID,81.0,VALID,0.263,
2011-10-11, 00:21:05,VALID,1011.134,VALID,0.0,VALID,104.0,VALID,0.0,VALID,23.071,VALID,81.0,VALID,0.265,
2011-10-11, 00:22:05,VALID,1011.123,VALID,0.0,VALID,104.0,VALID,0.0,VALID,23.071,VALID,71.0,VALID,0.416,
2011-10-11, 00:23:05,VALID,1011.109,VALID,0.0,VALID,104.0,VALID,0.0,VALID,23.051,VALID,61.0,VALID,0.29,
2011-10-11, 00:24:05,VALID,1011.13,VALID,0.0,VALID,104.0,VALID,0.0,VALID,23.071,VALID,61.0,VALID,0.224,
2011-10-11, 00:25:05,VALID,1011.134,VALID,0.0,VALID,104.0,VALID,0.0,VALID,23.049,VALID,61.0,VALID,0.479,
2011-10-11, 00:26:05,VALID,1011.121,VALID,0.0,VALID,104.0,VALID,0.0,VALID,23.051,VALID,61.0,VALID,0.43,
2011-10-11, 00:27:05,VALID,1011.137,VALID,0.0,VALID,104.0,VALID,0.0,VALID,23.051,VALID,61.0,VALID,0.475,
2011-10-11, 00:28:05,VALID,1011.099,VALID,0.0,VALID,104.0,VALID,0.0,VALID,23.071,VALID,61.0,VALID,0.307,
2011-10-11, 00:29:05,VALID,1011.098,VALID,0.0,VALID,104.0,VALID,0.0,VALID,23.071,VALID,61.0,VALID,0.302,
2011-10-11, 00:30:05,VALID,1011.093,VALID,0.0,VALID,104.0,VALID,0.112,VALID,23.051,VALID,61.0,VALID,0.498,
2011-10-11, 00:31:05,VALID,1011.058,VALID,0.0,VALID,104.0,VALID,0.0,VALID,23.051,VALID,61.0,VALID,0.224,
2011-10-11, 00:32:05,VALID,1011.046,VALID,0.0,VALID,104.0,VALID,0.0,VALID,23.071,VALID,61.0,VALID,0.399,
2011-10-11, 00:33:05,VALID,1011.061,VALID,0.0,VALID,104.0,VALID,0.0,VALID,23.051,VALID,61.0,VALID,0.384,
2011-10-11, 00:34:05,VALID,1011.051,VALID,0.0,VALID,104.0,VALID,0.0,VALID,23.032,VALID,61.0,VALID,0.39,
2011-10-11, 00:35:05,VALID,1011.06,VALID,0.0,VALID,104.0,VALID,0.0,VALID,23.032,VALID,61.0,VALID,0.171,
2011-10-11, 00:36:05,VALID,1011.038,VALID,0.0,VALID,104.0,VALID,0.0,VALID,23.012,VALID,61.0,VALID,0.303,
2011-10-11, 00:37:05,VALID,1011.034,VALID,0.0,VALID,104.0,VALID,0.0,VALID,22.993,VALID,61.0,VALID,0.248,
2011-10-11, 00:38:05,VALID,1011.05,VALID,0.0,VALID,104.0,VALID,0.0,VALID,22.973,VALID,61.0,VALID,0.008,
2011-10-11, 00:39:05,VALID,1011.031,VALID,0.0,VALID,104.0,VALID,0.0,VALID,22.954,VALID,61.0,VALID,0.002,
2011-10-11, 00:40:05,VALID,1011.018,VALID,0.0,VALID,104.0,VALID,0.0,VALID,22.915,VALID,61.0,VALID,0.394,
2011-10-11, 00:41:05,VALID,1010.998,VALID,0.0,VALID,104.0,VALID,0.0,VALID,22.895,VALID,61.0,VALID,0.425,
2011-10-11, 00:42:05,VALID,1010.978,VALID,0.0,VALID,104.0,VALID,0.0,VALID,22.876,VALID,61.0,VALID,0.366,
2011-10-11, 00:43:05,VALID,1010.994,VALID,0.0,VALID,104.0,VALID,0.112,VALID,22.856,VALID,61.0,VALID,0.508,
2011-10-11, 00:44:05,VALID,1010.98,VALID,0.0,VALID,104.0,VALID,0.112,VALID,22.816,VALID,61.0,VALID,0.339,
2011-10-11, 00:45:05,VALID,1010.941,VALID,0.0,VALID,104.0,VALID,0.0,VALID,22.837,VALID,61.0,VALID,0.258,
2011-10-11, 00:46:05,VALID,1010.913,VALID,0.0,VALID,104.0,VALID,0.112,VALID,22.837,VALID,60.0,VALID,0.435,
2011-10-11, 00:47:05,VALID,1010.895,VALID,0.0,VALID,104.0,VALID,0.112,VALID,22.796,VALID,60.0,VALID,0.154,
2011-10-11, 00:48:05,VALID,1010.892,VALID,0.0,VALID,104.0,VALID,0.0,VALID,22.837,VALID,60.0,VALID,0.218,
2011-10-11, 00:49:05,VALID,1010.849,VALID,0.0,VALID,104.0,VALID,0.0,VALID,22.817,VALID,60.0,VALID,0.221,
2011-10-11, 00:50:05,VALID,1010.836,VALID,0.0,VALID,104.0,VALID,0.0,VALID,22.817,VALID,60.0,VALID,0.239,
2011-10-11, 00:51:05,VALID,1010.851,VALID,0.0,VALID,104.0,VALID,0.0,VALID,22.817,VALID,60.0,VALID,0.28,
2011-10-11, 00:52:05,VALID,1010.826,VALID,0.0,VALID,104.0,VALID,0.0,VALID,22.817,VALID,60.0,VALID,0.392,
2011-10-11, 00:53:05,VALID,1010.807,VALID,0.0,VALID,104.0,VALID,0.0,VALID,22.817,VALID,60.0,VALID,0.558,
2011-10-11, 00:54:05,VALID,1010.827,VALID,0.0,VALID,104.0,VALID,0.0,VALID,22.837,VALID,60.0,VALID,0.209,
2011-10-11, 00:55:05,VALID,1010.803,VALID,0.0,VALID,104.0,VALID,0.0,VALID,22.837,VALID,60.0,VALID,0.094,
2011-10-11, 00:56:05,VALID,1010.823,VALID,0.0,VALID,104.0,VALID,0.0,VALID,22.837,VALID,60.0,VALID,0.0,
2011-10-11, 00:57:05,VALID,1010.787,VALID,0.0,VALID,104.0,VALID,0.0,VALID,22.837,VALID,60.0,VALID,0.329,
2011-10-11, 00:58:05,VALID,1010.764,VALID,0.0,VALID,104.0,VALID,0.0,VALID,22.856,VALID,60.0,VALID,0.085,
2011-10-11, 00:59:05,VALID,1010.802,VALID,0.0,VALID,104.0,VALID,0.0,VALID,22.856,VALID,60.0,VALID,0.172,
2011-10-11, 01:00:05,VALID,1010.782,VALID,0.0,VALID,104.0,VALID,0.0,VALID,22.856,VALID,60.0,VALID,0.0,
2011-10-11, 01:01:05,VALID,1010.774,VALID,0.0,VALID,104.0,VALID,0.112,VALID,22.816,VALID,60.0,VALID,0.0,
2011-10-11, 01:02:05,VALID,1010.755,VALID,0.0,VALID,104.0,VALID,0.0,VALID,22.837,VALID,60.0,VALID,0.073,
2011-10-11, 01:03:05,VALID,1010.741,VALID,0.0,VALID,104.0,VALID,0.0,VALID,22.837,VALID,60.0,VALID,0.193,
2011-10-11, 01:04:05,VALID,1010.744,VALID,0.0,VALID,104.0,VALID,0.0,VALID,22.837,VALID,60.0,VALID,0.286,
2011-10-11, 01:05:05,VALID,1010.717,VALID,0.0,VALID,104.0,VALID,0.0,VALID,22.816,VALID,60.0,VALID,0.267,
2011-10-11, 01:06:05,VALID,1010.732,VALID,0.0,VALID,104.0,VALID,0.0,VALID,22.796,VALID,60.0,VALID,0.336,
2011-10-11, 01:07:05,VALID,1010.703,VALID,0.0,VALID,104.0,VALID,0.112,VALID,22.796,VALID,60.0,VALID,0.239,
2011-10-11, 01:08:05,VALID,1010.713,VALID,0.0,VALID,104.0,VALID,0.112,VALID,22.816,VALID,60.0,VALID,0.232,
2011-10-11, 01:09:05,VALID,1010.673,VALID,0.0,VALID,104.0,VALID,0.112,VALID,22.796,VALID,60.0,VALID,0.0,
2011-10-11, 01:10:05,VALID,1010.678,VALID,0.0,VALID,104.0,VALID,0.112,VALID,22.817,VALID,60.0,VALID,0.0,
2011-10-11, 01:11:05,VALID,1010.687,VALID,0.0,VALID,104.0,VALID,0.0,VALID,22.777,VALID,60.0,VALID,0.0,
2011-10-11, 01:12:05,VALID,1010.674,VALID,0.0,VALID,104.0,VALID,0.112,VALID,22.798,VALID,60.0,VALID,0.0,
2011-10-11, 01:13:05,VALID,1010.692,VALID,0.0,VALID,104.0,VALID,0.0,VALID,22.817,VALID,60.0,VALID,0.0,
2011-10-11, 01:14:05,VALID,1010.673,VALID,0.0,VALID,104.0,VALID,0.112,VALID,22.796,VALID,60.0,VALID,0.0,
2011-10-11, 01:15:05,VALID,1010.681,VALID,0.0,VALID,104.0,VALID,0.112,VALID,22.796,VALID,60.0,VALID,0.0,
2011-10-11, 01:16:05,VALID,1010.656,VALID,0.0,VALID,104.0,VALID,0.0,VALID,22.816,VALID,60.0,VALID,0.0,
2011-10-11, 01:17:05,VALID,1010.674,VALID,0.0,VALID,104.0,VALID,0.112,VALID,22.816,VALID,60.0,VALID,0.0,
2011-10-11, 01:18:05,VALID,1010.647,VALID,0.0,VALID,104.0,VALID,0.0,VALID,22.816,VALID,60.0,VALID,0.0,
2011-10-11, 01:19:05,VALID,1010.648,VALID,0.0,VALID,104.0,VALID,0.112,VALID,22.835,VALID,60.0,VALID,0.0,
2011-10-11, 01:20:05,VALID,1010.615,VALID,0.0,VALID,104.0,VALID,0.112,VALID,22.876,VALID,60.0,VALID,0.0,
2011-10-11, 01:21:05,VALID,1010.607,VALID,0.0,VALID,104.0,VALID,0.112,VALID,22.893,VALID,60.0,VALID,0.0,
2011-10-11, 01:22:05,VALID,1010.604,VALID,0.0,VALID,104.0,VALID,0.0,VALID,22.893,VALID,60.0,VALID,0.111,
2011-10-11, 01:23:05,VALID,1010.591,VALID,0.0,VALID,104.0,VALID,0.0,VALID,22.913,VALID,60.0,VALID,0.16,
2011-10-11, 01:24:05,VALID,1010.578,VALID,0.0,VALID,104.0,VALID,0.0,VALID,22.932,VALID,60.0,VALID,0.248,
2011-10-11, 01:25:05,VALID,1010.591,VALID,0.0,VALID,104.0,VALID,0.112,VALID,22.932,VALID,60.0,VALID,0.229,
2011-10-11, 01:26:05,VALID,1010.61,VALID,0.0,VALID,104.0,VALID,0.0,VALID,22.954,VALID,60.0,VALID,0.306,
2011-10-11, 01:27:05,VALID,1010.614,VALID,0.0,VALID,104.0,VALID,0.0,VALID,22.934,VALID,60.0,VALID,0.367,
2011-10-11, 01:28:05,VALID,1010.622,VALID,0.0,VALID,104.0,VALID,0.0,VALID,22.934,VALID,60.0,VALID,0.287,
2011-10-11, 01:29:05,VALID,1010.662,VALID,0.0,VALID,104.0,VALID,0.112,VALID,22.893,VALID,60.0,VALID,0.296,
2011-10-11, 01:30:05,VALID,1010.666,VALID,0.0,VALID,104.0,VALID,0.0,VALID,22.915,VALID,60.0,VALID,0.21,
2011-10-11, 01:31:05,VALID,1010.687,VALID,0.0,VALID,104.0,VALID,0.112,VALID,22.874,VALID,60.0,VALID,0.276,
2011-10-11, 01:32:05,VALID,1010.687,VALID,0.0,VALID,104.0,VALID,0.0,VALID,22.876,VALID,60.0,VALID,0.2,
2011-10-11, 01:33:05,VALID,1010.677,VALID,0.0,VALID,104.0,VALID,0.0,VALID,22.876,VALID,60.0,VALID,0.196,
2011-10-11, 01:34:05,VALID,1010.674,VALID,0.0,VALID,104.0,VALID,0.0,VALID,22.876,VALID,60.0,VALID,0.161,
2011-10-11, 01:35:05,VALID,1010.642,VALID,0.0,VALID,104.0,VALID,0.0,VALID,22.856,VALID,60.0,VALID,0.0,
2011-10-11, 01:36:05,VALID,1010.677,VALID,0.0,VALID,104.0,VALID,0.0,VALID,22.835,VALID,60.0,VALID,0.0,
2011-10-11, 01:37:05,VALID,1010.666,VALID,0.0,VALID,104.0,VALID,0.0,VALID,22.856,VALID,60.0,VALID,0.0,
2011-10-11, 01:38:05,VALID,1010.652,VALID,0.0,VALID,104.0,VALID,0.0,VALID,22.835,VALID,60.0,VALID,0.0,
2011-10-11, 01:39:05,VALID,1010.683,VALID,0.0,VALID,104.0,VALID,0.0,VALID,22.835,VALID,60.0,VALID,0.0,
2011-10-11, 01:40:05,VALID,1010.653,VALID,0.0,VALID,104.0,VALID,0.112,VALID,22.856,VALID,60.0,VALID,0.21,
2011-10-11, 01:41:05,VALID,1010.656,VALID,0.0,VALID,104.0,VALID,0.0,VALID,22.856,VALID,60.0,VALID,0.07,
2011-10-11, 01:42:05,VALID,1010.643,VALID,0.0,VALID,104.0,VALID,0.0,VALID,22.856,VALID,60.0,VALID,0.0,
2011-10-11, 01:43:05,VALID,1010.655,VALID,0.0,VALID,104.0,VALID,0.112,VALID,22.855,VALID,60.0,VALID,0.287,
2011-10-11, 01:44:05,VALID,1010.641,VALID,0.0,VALID,104.0,VALID,0.112,VALID,22.876,VALID,60.0,VALID,0.284,
2011-10-11, 01:45:05,VALID,1010.632,VALID,0.0,VALID,104.0,VALID,0.112,VALID,22.855,VALID,60.0,VALID,0.212,
2011-10-11, 01:46:05,VALID,1010.627,VALID,0.0,VALID,104.0,VALID,0.0,VALID,22.835,VALID,60.0,VALID,0.291,
2011-10-11, 01:47:05,VALID,1010.604,VALID,0.0,VALID,104.0,VALID,0.0,VALID,22.856,VALID,60.0,VALID,0.326,
2011-10-11, 01:48:05,VALID,1010.583,VALID,0.0,VALID,104.0,VALID,0.112,VALID,22.856,VALID,60.0,VALID,0.444,
2011-10-11, 01:49:05,VALID,1010.578,VALID,0.0,VALID,104.0,VALID,0.0,VALID,22.816,VALID,60.0,VALID,0.308,
2011-10-11, 01:50:05,VALID,1010.583,VALID,0.0,VALID,104.0,VALID,0.0,VALID,22.816,VALID,60.0,VALID,0.291,
2011-10-11, 01:51:05,VALID,1010.58,VALID,0.0,VALID,104.0,VALID,0.112,VALID,22.835,VALID,60.0,VALID,0.396,
2011-10-11, 01:52:05,VALID,1010.592,VALID,0.0,VALID,104.0,VALID,0.112,VALID,22.835,VALID,60.0,VALID,0.333,
2011-10-11, 01:53:05,VALID,1010.56,VALID,0.0,VALID,104.0,VALID,0.0,VALID,22.835,VALID,60.0,VALID,0.396,
2011-10-11, 01:54:05,VALID,1010.564,VALID,0.0,VALID,104.0,VALID,0.0,VALID,22.855,VALID,60.0,VALID,0.593,
2011-10-11, 01:55:05,VALID,1010.566,VALID,0.0,VALID,104.0,VALID,0.0,VALID,22.835,VALID,60.0,VALID,0.328,
2011-10-11, 01:56:05,VALID,1010.558,VALID,0.0,VALID,104.0,VALID,0.112,VALID,22.876,VALID,60.0,VALID,0.313,
2011-10-11, 01:57:05,VALID,1010.545,VALID,0.0,VALID,104.0,VALID,0.112,VALID,22.895,VALID,60.0,VALID,0.402,
2011-10-11, 01:58:05,VALID,1010.549,VALID,0.0,VALID,104.0,VALID,0.0,VALID,22.855,VALID,57.0,VALID,0.476,
2011-10-11, 01:59:05,VALID,1010.524,VALID,0.0,VALID,104.0,VALID,0.112,VALID,22.874,VALID,48.0,VALID,0.158,
2011-10-11, 02:00:05,VALID,1010.494,VALID,0.0,VALID,104.0,VALID,0.0,VALID,22.895,VALID,48.0,VALID,0.0,
2011-10-11, 02:01:05,VALID,1010.461,VALID,0.0,VALID,104.0,VALID,0.112,VALID,22.893,VALID,48.0,VALID,0.0,
2011-10-11, 02:02:04,VALID,1010.455,VALID,0.0,VALID,104.0,VALID,0.0,VALID,22.915,VALID,48.0,VALID,0.0,
2011-10-11, 02:03:04,VALID,1010.439,VALID,0.0,VALID,104.0,VALID,0.112,VALID,22.934,VALID,48.0,VALID,0.0,
2011-10-11, 02:04:04,VALID,1010.428,VALID,0.0,VALID,104.0,VALID,0.112,VALID,22.913,VALID,48.0,VALID,0.0,
2011-10-11, 02:05:04,VALID,1010.43,VALID,0.0,VALID,104.0,VALID,0.112,VALID,22.932,VALID,48.0,VALID,0.005,
2011-10-11, 02:06:04,VALID,1010.392,VALID,0.0,VALID,104.0,VALID,0.112,VALID,22.932,VALID,48.0,VALID,0.0,
2011-10-11, 02:07:04,VALID,1010.401,VALID,0.0,VALID,104.0,VALID,0.0,VALID,22.913,VALID,48.0,VALID,0.0,
2011-10-11, 02:08:04,VALID,1010.363,VALID,0.0,VALID,104.0,VALID,0.0,VALID,22.913,VALID,48.0,VALID,0.0,
2011-10-11, 02:09:04,VALID,1010.379,VALID,0.0,VALID,104.0,VALID,0.0,VALID,22.934,VALID,48.0,VALID,0.138,
2011-10-11, 02:10:04,VALID,1010.374,VALID,0.0,VALID,104.0,VALID,0.0,VALID,22.932,VALID,48.0,VALID,0.289,
2011-10-11, 02:11:04,VALID,1010.363,VALID,0.0,VALID,104.0,VALID,0.112,VALID,22.954,VALID,48.0,VALID,0.293,
2011-10-11, 02:12:04,VALID,1010.332,VALID,0.0,VALID,104.0,VALID,0.0,VALID,22.973,VALID,48.0,VALID,0.179,
2011-10-11, 02:13:04,VALID,1010.279,VALID,0.0,VALID,104.0,VALID,0.112,VALID,22.993,VALID,48.0,VALID,0.427,
2011-10-11, 02:14:04,VALID,1010.3,VALID,0.0,VALID,104.0,VALID,0.112,VALID,23.012,VALID,48.0,VALID,0.536,
2011-10-11, 02:15:04,VALID,1010.323,VALID,0.0,VALID,104.0,VALID,0.112,VALID,22.991,VALID,81.0,VALID,0.796,
2011-10-11, 02:16:04,VALID,1010.298,VALID,0.0,VALID,104.0,VALID,0.0,VALID,23.03,VALID,91.0,VALID,0.809,
2011-10-11, 02:17:04,VALID,1010.294,VALID,0.0,VALID,104.0,VALID,0.0,VALID,23.051,VALID,91.0,VALID,0.866,
2011-10-11, 02:18:04,VALID,1010.275,VALID,0.0,VALID,104.0,VALID,0.0,VALID,23.071,VALID,88.0,VALID,0.863,
2011-10-11, 02:19:04,VALID,1010.257,VALID,0.0,VALID,104.0,VALID,0.0,VALID,23.109,VALID,84.0,VALID,0.77,
2011-10-11, 02:20:04,VALID,1010.281,VALID,0.0,VALID,104.0,VALID,0.0,VALID,23.109,VALID,83.0,VALID,0.943,
2011-10-11, 02:21:04,VALID,1010.26,VALID,0.0,VALID,104.0,VALID,0.0,VALID,23.129,VALID,83.0,VALID,0.55,
2011-10-11, 02:22:04,VALID,1010.228,VALID,0.0,VALID,104.0,VALID,0.0,VALID,23.168,VALID,82.0,VALID,0.704,
2011-10-11, 02:23:04,VALID,1010.212,VALID,0.0,VALID,104.0,VALID,0.0,VALID,23.168,VALID,82.0,VALID,0.225,
2011-10-11, 02:24:04,VALID,1010.193,VALID,0.0,VALID,104.0,VALID,0.0,VALID,23.166,VALID,83.0,VALID,0.136,
2011-10-11, 02:25:04,VALID,1010.154,VALID,0.0,VALID,104.0,VALID,0.0,VALID,23.187,VALID,77.0,VALID,0.443,
2011-10-11, 02:26:04,VALID,1010.163,VALID,0.0,VALID,104.0,VALID,0.0,VALID,23.187,VALID,50.0,VALID,0.363,
2011-10-11, 02:27:04,VALID,1010.158,VALID,0.0,VALID,104.0,VALID,0.0,VALID,23.166,VALID,50.0,VALID,0.151,
2011-10-11, 02:28:04,VALID,1010.106,VALID,0.0,VALID,104.0,VALID,0.0,VALID,23.166,VALID,50.0,VALID,0.001,
2011-10-11, 02:29:04,VALID,1010.096,VALID,0.0,VALID,104.0,VALID,0.0,VALID,23.187,VALID,50.0,VALID,0.0,
2011-10-11, 02:30:04,VALID,1010.11,VALID,0.0,VALID,104.0,VALID,0.0,VALID,23.187,VALID,50.0,VALID,0.0,
2011-10-11, 02:31:04,VALID,1010.086,VALID,0.0,VALID,104.0,VALID,0.0,VALID,23.187,VALID,50.0,VALID,0.0,
2011-10-11, 02:32:04,VALID,1010.087,VALID,0.0,VALID,104.0,VALID,0.0,VALID,23.168,VALID,50.0,VALID,0.0,
2011-10-11, 02:33:04,VALID,1010.051,VALID,0.0,VALID,104.0,VALID,0.0,VALID,23.147,VALID,50.0,VALID,0.0,
2011-10-11, 02:34:04,VALID,1010.051,VALID,0.0,VALID,104.0,VALID,0.0,VALID,23.148,VALID,50.0,VALID,0.0,
2011-10-11, 02:35:04,VALID,1010.036,VALID,0.0,VALID,104.0,VALID,0.0,VALID,23.168,VALID,50.0,VALID,0.0,
2011-10-11, 02:36:04,VALID,1010.037,VALID,0.0,VALID,104.0,VALID,0.0,VALID,23.127,VALID,50.0,VALID,0.168,
2011-10-11, 02:37:04,VALID,1010.04,VALID,0.0,VALID,104.0,VALID,0.0,VALID,23.148,VALID,50.0,VALID,0.258,
2011-10-11, 02:38:04,VALID,1010.052,VALID,0.0,VALID,104.0,VALID,0.0,VALID,23.129,VALID,50.0,VALID,0.303,
2011-10-11, 02:39:04,VALID,1010.071,VALID,0.0,VALID,104.0,VALID,0.0,VALID,23.129,VALID,50.0,VALID,0.395,
2011-10-11, 02:40:04,VALID,1010.051,VALID,0.0,VALID,104.0,VALID,0.0,VALID,23.129,VALID,50.0,VALID,0.316,
2011-10-11, 02:41:04,VALID,1010.042,VALID,0.0,VALID,104.0,VALID,0.0,VALID,23.129,VALID,50.0,VALID,0.091,
2011-10-11, 02:42:04,VALID,1010.06,VALID,0.0,VALID,104.0,VALID,0.0,VALID,23.109,VALID,50.0,VALID,0.0,
2011-10-11, 02:43:04,VALID,1010.099,VALID,0.0,VALID,104.0,VALID,0.0,VALID,23.129,VALID,50.0,VALID,0.0,
2011-10-11, 02:44:04,VALID,1010.078,VALID,0.0,VALID,104.0,VALID,0.0,VALID,23.108,VALID,50.0,VALID,0.0,
2011-10-11, 02:45:04,VALID,1010.098,VALID,0.0,VALID,104.0,VALID,0.112,VALID,23.069,VALID,50.0,VALID,0.07,
2011-10-11, 02:46:04,VALID,1010.084,VALID,0.0,VALID,104.0,VALID,0.0,VALID,23.09,VALID,50.0,VALID,0.0,
2011-10-11, 02:47:04,VALID,1010.067,VALID,0.0,VALID,104.0,VALID,0.0,VALID,23.069,VALID,50.0,VALID,0.0,
2011-10-11, 02:48:04,VALID,1010.024,VALID,0.0,VALID,104.0,VALID,0.0,VALID,23.09,VALID,50.0,VALID,0.14,
2011-10-11, 02:49:04,VALID,1010.038,VALID,0.0,VALID,104.0,VALID,0.0,VALID,23.09,VALID,51.0,VALID,0.23,
2011-10-11, 02:50:04,VALID,1010.013,VALID,0.0,VALID,104.0,VALID,0.112,VALID,23.071,VALID,50.0,VALID,0.132,
2011-10-11, 02:51:04,VALID,1009.979,VALID,0.0,VALID,104.0,VALID,0.0,VALID,23.071,VALID,50.0,VALID,0.188,
2011-10-11, 02:52:04,VALID,1009.959,VALID,0.0,VALID,104.0,VALID,0.0,VALID,23.09,VALID,50.0,VALID,0.188,
2011-10-11, 02:53:04,VALID,1009.968,VALID,0.0,VALID,104.0,VALID,0.112,VALID,23.069,VALID,50.0,VALID,0.215,
2011-10-11, 02:54:04,VALID,1009.977,VALID,0.0,VALID,104.0,VALID,0.0,VALID,23.071,VALID,50.0,VALID,0.415,
2011-10-11, 02:55:04,VALID,1009.98,VALID,0.0,VALID,104.0,VALID,0.0,VALID,23.071,VALID,50.0,VALID,0.469,
2011-10-11, 02:56:04,VALID,1009.988,VALID,0.0,VALID,104.0,VALID,0.0,VALID,23.09,VALID,50.0,VALID,0.439,
2011-10-11, 02:57:04,VALID,1010.004,VALID,0.0,VALID,104.0,VALID,0.0,VALID,23.09,VALID,50.0,VALID,0.446,
2011-10-11, 02:58:04,VALID,1010.01,VALID,0.0,VALID,104.0,VALID,0.0,VALID,23.071,VALID,50.0,VALID,0.395,
2011-10-11, 02:59:04,VALID,1010.05,VALID,0.0,VALID,104.0,VALID,0.0,VALID,23.09,VALID,50.0,VALID,0.0,
2011-10-11, 03:00:04,VALID,1010.03,VALID,0.0,VALID,104.0,VALID,0.112,VALID,23.109,VALID,50.0,VALID,0.106,
2011-10-11, 03:01:04,VALID,1010.039,VALID,0.0,VALID,104.0,VALID,0.112,VALID,23.09,VALID,21.0,VALID,0.466,
2011-10-11, 03:02:04,VALID,1010.025,VALID,0.0,VALID,104.0,VALID,0.0,VALID,23.09,VALID,15.0,VALID,0.384,
2011-10-11, 03:03:04,VALID,1010.033,VALID,0.0,VALID,104.0,VALID,0.0,VALID,23.108,VALID,15.0,VALID,0.553,
2011-10-11, 03:04:04,VALID,1010.038,VALID,0.0,VALID,104.0,VALID,0.112,VALID,23.108,VALID,15.0,VALID,0.482,
2011-10-11, 03:05:04,VALID,1010.036,VALID,0.0,VALID,104.0,VALID,0.112,VALID,23.148,VALID,14.0,VALID,0.34,
2011-10-11, 03:06:04,VALID,1010.046,VALID,0.0,VALID,104.0,VALID,0.0,VALID,23.129,VALID,14.0,VALID,0.313,
2011-10-11, 03:07:04,VALID,1010.0,VALID,0.0,VALID,104.0,VALID,0.0,VALID,23.129,VALID,14.0,VALID,0.471,
2011-10-11, 03:08:04,VALID,1009.999,VALID,0.0,VALID,104.0,VALID,0.0,VALID,23.129,VALID,14.0,VALID,0.269,
2011-10-11, 03:09:04,VALID,1009.999,VALID,0.0,VALID,104.0,VALID,0.0,VALID,23.109,VALID,14.0,VALID,0.302,
2011-10-11, 03:10:04,VALID,1009.979,VALID,0.0,VALID,104.0,VALID,0.0,VALID,23.129,VALID,14.0,VALID,0.19,
2011-10-11, 03:11:04,VALID,1009.981,VALID,0.0,VALID,104.0,VALID,0.0,VALID,23.109,VALID,14.0,VALID,0.272,
2011-10-11, 03:12:04,VALID,1009.978,VALID,0.0,VALID,104.0,VALID,0.0,VALID,23.109,VALID,14.0,VALID,0.346,
2011-10-11, 03:13:04,VALID,1009.997,VALID,0.0,VALID,104.0,VALID,0.0,VALID,23.129,VALID,21.0,VALID,0.39,
2011-10-11, 03:14:04,VALID,1009.995,VALID,0.0,VALID,104.0,VALID,0.0,VALID,23.109,VALID,21.0,VALID,0.497,
2011-10-11, 03:15:04,VALID,1010.002,VALID,0.0,VALID,104.0,VALID,0.0,VALID,23.108,VALID,21.0,VALID,0.404,
2011-10-11, 03:16:04,VALID,1009.978,VALID,0.0,VALID,104.0,VALID,0.0,VALID,23.129,VALID,21.0,VALID,0.392,
2011-10-11, 03:17:04,VALID,1010.013,VALID,0.0,VALID,104.0,VALID,0.0,VALID,23.148,VALID,21.0,VALID,0.154,
2011-10-11, 03:18:04,VALID,1009.987,VALID,0.0,VALID,104.0,VALID,0.0,VALID,23.148,VALID,21.0,VALID,0.564,
2011-10-11, 03:19:04,VALID,1009.975,VALID,0.0,VALID,104.0,VALID,0.0,VALID,23.168,VALID,21.0,VALID,0.3,
2011-10-11, 03:20:04,VALID,1009.978,VALID,0.0,VALID,104.0,VALID,0.0,VALID,23.147,VALID,21.0,VALID,0.42,
2011-10-11, 03:21:04,VALID,1009.969,VALID,0.0,VALID,104.0,VALID,0.0,VALID,23.207,VALID,21.0,VALID,0.476,
2011-10-11, 03:22:04,VALID,1009.976,VALID,0.0,VALID,104.0,VALID,0.0,VALID,23.187,VALID,21.0,VALID,0.421,
2011-10-11, 03:23:04,VALID,1009.976,VALID,0.0,VALID,104.0,VALID,0.0,VALID,23.207,VALID,27.0,VALID,0.56,
2011-10-11, 03:24:04,VALID,1009.966,VALID,0.0,VALID,104.0,VALID,0.112,VALID,23.226,VALID,62.0,VALID,0.755,
2011-10-11, 03:25:04,VALID,1009.992,VALID,0.0,VALID,104.0,VALID,0.0,VALID,23.226,VALID,77.0,VALID,0.468,
2011-10-11, 03:26:04,VALID,1009.977,VALID,0.0,VALID,104.0,VALID,0.0,VALID,23.246,VALID,76.0,VALID,0.766,
2011-10-11, 03:27:04,VALID,1009.975,VALID,0.0,VALID,104.0,VALID,0.0,VALID,23.246,VALID,81.0,VALID,0.8,
2011-10-11, 03:28:04,VALID,1009.999,VALID,0.0,VALID,104.0,VALID,0.0,VALID,23.265,VALID,88.0,VALID,0.885,
2011-10-11, 03:29:04,VALID,1009.99,VALID,0.0,VALID,104.0,VALID,0.112,VALID,23.244,VALID,75.0,VALID,0.736,
2011-10-11, 03:30:04,VALID,1009.96,VALID,0.0,VALID,103.992,VALID,0.0,VALID,23.246,VALID,75.0,VALID,0.804,
2011-10-11, 03:31:04,VALID,1009.972,VALID,0.0,VALID,103.901,VALID,0.112,VALID,23.246,VALID,78.0,VALID,0.903,
2011-10-11, 03:32:04,VALID,1009.973,VALID,0.0,VALID,103.817,VALID,0.112,VALID,23.225,VALID,82.0,VALID,0.757,
2011-10-11, 03:33:04,VALID,1009.982,VALID,0.0,VALID,103.771,VALID,0.0,VALID,23.265,VALID,83.0,VALID,0.533,
2011-10-11, 03:34:04,VALID,1009.978,VALID,0.0,VALID,103.748,VALID,0.0,VALID,23.285,VALID,83.0,VALID,0.289,
2011-10-11, 03:35:04,VALID,1009.974,VALID,0.0,VALID,103.741,VALID,0.112,VALID,23.264,VALID,83.0,VALID,0.632,
2011-10-11, 03:36:04,VALID,1009.982,VALID,0.0,VALID,103.748,VALID,0.0,VALID,23.264,VALID,82.0,VALID,0.408,
2011-10-11, 03:37:04,VALID,1009.983,VALID,0.0,VALID,103.756,VALID,0.0,VALID,23.285,VALID,82.0,VALID,0.88,
2011-10-11, 03:38:04,VALID,1009.979,VALID,0.0,VALID,103.672,VALID,0.112,VALID,23.304,VALID,84.0,VALID,0.848,
2011-10-11, 03:39:04,VALID,1009.968,VALID,0.0,VALID,103.718,VALID,0.0,VALID,23.304,VALID,69.0,VALID,0.597,
2011-10-11, 03:40:04,VALID,1009.982,VALID,0.0,VALID,103.68,VALID,0.112,VALID,23.304,VALID,76.0,VALID,0.843,
2011-10-11, 03:41:04,VALID,1009.988,VALID,0.0,VALID,103.634,VALID,0.0,VALID,23.304,VALID,69.0,VALID,0.773,
2011-10-11, 03:42:04,VALID,1009.994,VALID,0.0,VALID,103.542,VALID,0.0,VALID,23.304,VALID,80.0,VALID,0.634,
2011-10-11, 03:43:04,VALID,1010.027,VALID,0.0,VALID,103.565,VALID,0.0,VALID,23.326,VALID,80.0,VALID,0.254,